WB5OMR-9 Weather Reports


Display with metric or nautical units.
time (UTC)temp
F
wind
direction
speed
MPH
gust
MPH
rain 1hr
in
rain 24hr
in
rain mn
in
humidity
%
barometer
mb
20260503214546 84 0.0 0.0 0.00 0.00 0.00 39 1017.9
20260503213545 83 0.0 0.0 0.00 0.00 0.00 39 1018.3
20260503212544 84 0.0 0.0 0.00 0.00 0.00 38 1018.3
20260503211543 83 0.0 0.0 0.00 0.00 0.00 40 1018.6
20260503210541 83 0.0 0.0 0.00 0.00 0.00 40 1019.0
20260503205458 84 0.0 0.0 0.00 0.00 0.00 39 1019.3
20260503204457 83 0.0 0.0 0.00 0.00 0.00 40 1019.3
20260503203456 83 0.0 0.0 0.00 0.00 0.00 40 1019.6
20260503202454 82 0.0 0.0 0.00 0.00 0.00 40 1019.6
20260503201453 82 0.0 0.0 0.00 0.00 0.00 40 1020.0
20260503200452 82 0.0 0.0 0.00 0.00 0.00 41 1020.0
20260503195408 82 0.0 0.0 0.00 0.00 0.00 40 1020.3
20260503194325 82 0.0 0.0 0.00 0.00 0.00 40 1020.7
20260503193324 82 0.0 0.0 0.00 0.00 0.00 40 1020.7
20260503192322 82 0.0 0.0 0.00 0.00 0.00 42 1020.7
20260503191321 82 0.0 0.0 0.00 0.00 0.00 41 1020.7
20260503190320 82 0.0 0.0 0.00 0.00 0.00 41 1020.7
20260503185319 82 0.0 0.0 0.00 0.00 0.00 42 1021.0
20260503184318 82 0.0 0.0 0.00 0.00 0.00 42 1021.0
20260503183316 82 0.0 0.0 0.00 0.00 0.00 41 1021.3
20260503182315 82 0.0 0.0 0.00 0.00 0.00 41 1021.3
20260503181314 82 0.0 0.0 0.00 0.00 0.00 42 1021.7
20260503180313 81 0.0 0.0 0.00 0.00 0.00 43 1021.7
20260503175312 81 0.0 0.0 0.00 0.00 0.00 43 1022.0
20260503174311 81 0.0 0.0 0.00 0.00 0.00 45 1022.0
20260503173310 82 0.0 0.0 0.00 0.00 0.00 45 1022.4
20260503172308 81 0.0 0.0 0.00 0.00 0.00 46 1022.4
20260503171307 81 0.0 0.0 0.00 0.00 0.00 46 1022.4
20260503170306 80 0.0 0.0 0.00 0.00 0.00 47 1022.7
20260503140249 61 0.0 0.0 0.00 0.00 0.00 86 1022.4
20260503131244 53 0.0 0.0 0.00 0.00 0.00 88 1021.7
20260503130242 52 0.0 0.0 0.00 0.00 0.00 88 1021.7
20260503110231 52 0.0 0.0 0.00 0.00 0.00 86 1020.7
20260503100216 53 0.0 0.0 0.00 0.00 0.00 86 1020.7
20260503090127 53 0.0 0.0 0.00 0.00 0.00 84 1020.3
20260503080958 55 0.0 0.0 0.00 0.00 0.00 83 1020.3
20260503071955 56 0.0 0.0 0.00 0.00 0.00 82 1021.0
20260503070953 56 0.0 0.0 0.00 0.00 0.00 82 1021.0
20260503053821 58 0.0 0.0 0.00 0.00 0.00 79 1022.0
20260503052820 59 0.0 0.0 0.00 0.00 0.00 79 1021.7
20260503051819 59 0.0 0.0 0.00 0.00 0.00 79 1021.3
20260503050818 59 0.0 0.0 0.00 0.00 0.00 79 1021.3
20260503044816 60 0.0 0.0 0.00 0.00 0.00 78 1021.3
20260503043814 60 0.0 0.0 0.00 0.00 0.00 77 1021.3
20260503042813 61 0.0 0.0 0.00 0.00 0.00 76 1021.3
20260503041812 61 0.0 0.0 0.00 0.00 0.00 76 1021.3
20260503040811 61 0.0 0.0 0.00 0.00 0.00 75 1021.3
20260503035809 62 0.0 0.0 0.00 0.00 0.00 75 1021.3
20260503034808 62 0.0 0.0 0.00 0.00 0.00 74 1021.3
20260503033807 63 0.0 0.0 0.00 0.00 0.00 72 1021.0
20260503032723 63 0.0 0.0 0.00 0.00 0.00 72 1021.0
20260503031722 64 0.0 0.0 0.00 0.00 0.00 71 1021.0
20260503030719 64 0.0 0.0 0.00 0.00 0.00 70 1021.0
20260503025718 65 0.0 0.0 0.00 0.00 0.00 68 1021.0
20260503024717 65 0.0 0.0 0.00 0.00 0.00 67 1020.7
20260503022716 67 0.0 0.0 0.00 0.00 0.00 63 1020.7
20260503021709 67 0.0 0.0 0.00 0.00 0.00 62 1020.7
20260503015708 68 0.0 0.0 0.00 0.00 0.00 57 1020.0
20260503014706 69 0.0 0.0 0.00 0.00 0.00 56 1020.0
20260503011623 71 0.0 0.0 0.00 0.00 0.00 53 1019.6
20260503010622 72 0.0 0.0 0.00 0.00 0.00 50 1019.3
20260503005621 73 0.0 0.0 0.00 0.00 0.00 48 1019.3
20260503004620 74 0.0 0.0 0.00 0.00 0.00 46 1019.3
20260503003619 75 0.0 0.0 0.00 0.00 0.00 45 1019.3
20260503002618 75 0.0 0.0 0.00 0.00 0.00 44 1019.3
20260503001616 76 0.0 0.0 0.00 0.00 0.00 44 1019.3
20260503000615 77 0.0 0.0 0.00 0.00 0.00 43 1019.3
20260502235614 77 0.0 0.0 0.00 0.00 0.00 43 1019.3
20260502234613 78 0.0 0.0 0.00 0.00 0.00 43 1019.3
20260502233612 78 0.0 0.0 0.00 0.00 0.00 41 1019.3
20260502232611 77 0.0 0.0 0.00 0.00 0.00 40 1019.3
20260502231609 77 0.0 0.0 0.00 0.00 0.00 42 1019.3
20260502230608 77 0.0 0.0 0.00 0.00 0.00 43 1019.3
20260502225606 78 0.0 0.0 0.00 0.00 0.00 43 1019.3
20260502224605 78 0.0 0.0 0.00 0.00 0.00 43 1019.6
20260502223604 78 0.0 0.0 0.00 0.00 0.00 43 1019.3
20260502222603 79 0.0 0.0 0.00 0.00 0.00 42 1019.3
20260502221602 79 0.0 0.0 0.00 0.00 0.00 43 1019.3
20260502220600 82 0.0 0.0 0.00 0.00 0.00 39 1019.3
20260502215559 85 0.0 0.0 0.00 0.00 0.00 37 1019.3